Other Public Products
Issued by NWS Charleston, SC

Current Version | Previous Version | Graphics & Text | Print | Product List | Glossary On
Versions: 1 2 3 4 5 6 7 8 9 10 11 12 13 14 15 16 17 18 19 20 21 22 23 24 25 26 27 28 29 30 31 32 33 34 35 36 37 38 39 40 41 42 43 44 45 46 47 48 49 50
580
FPUS82 KCHS 190012
OPUCHS

TEST...KCHS/KSAV Gateway Observations...TEST
National Weather Service Charleston SC
700 PM EST SUN FEB 18 2018

NOTE: "fair" indicates few or no clouds below 12,000 feet with no
significant weather and/or obstructions to visibility.

SCZ050-WAZ558-NCZ071-TXZ119-213-PAZ071-DCZ001-FLZ074-172-MI076-
NYZ176-178-MAZ016-IL014-TNZ027-NJZ106-GAZ044-MD014-190100-

...Gateway Observations for Charleston International...

CITY           SKY/WX    TMP DP  RH WIND       PRES   REMARKS
Chas Airport   MOCLDY    60  50  69 E10       30.33R
6HR MIN TEMP:  60; 6HR MAX TEMP:  66;

Seattle        MOSUNNY   36  22  56 NW22G35   29.77R WCI  25
6HR MIN TEMP:  32; 6HR MAX TEMP:  39; 6HR PCP:  0.06;

Charlotte      MOCLDY    61  37  41 E6        30.33R
6HR MIN TEMP:  59; 6HR MAX TEMP:  65;

Dallas DFW     CLOUDY    63  60  90 S14       29.88F
6HR MIN TEMP:  54; 6HR MAX TEMP:  64; 6HR PCP:  0.02;

Dallas Love    CLOUDY    61  59  93 S10       29.90F
6HR MIN TEMP:  52; 6HR MAX TEMP:  61; 6HR PCP:  0.08;

Philladelphia  FAIR      43  24  47 W8        30.48R
6HR MIN TEMP:  43; 6HR MAX TEMP:  46;

Wash National  MOCLDY    46  33  60 E5        30.45R
6HR MIN TEMP:  46; 6HR MAX TEMP:  51;

Baltimore      FAIR      41  30  65 CALM      30.44R
6HR MIN TEMP:  41; 6HR MAX TEMP:  48;

Miami          FAIR      76  65  68 E10       30.20S
6HR MIN TEMP:  71; 6HR MAX TEMP:  83;

Detroit        MOCLDY    33  26  75 SE3       30.24S
6HR MIN TEMP:  33; 6HR MAX TEMP:  36;

Newark         FAIR      40  23  50 NE5       30.45R WCI  37
6HR MIN TEMP:  39; 6HR MAX TEMP:  46;

Laguardia      MOCLDY    43  23  45 N7        30.45R
6HR MIN TEMP:  42; 6HR MAX TEMP:  45;

J F K          MOCLDY    40  23  50 NW8       30.47R WCI  34
6HR MIN TEMP:  40; 6HR MAX TEMP:  45;

Boston Logan   FAIR      40  22  48 NW9       30.43R WCI  34
6HR MIN TEMP:  40; 6HR MAX TEMP:  44;

Ft. Lauderdale FAIR      75  66  73 E14       30.20S
6HR MIN TEMP:  75; 6HR MAX TEMP:  80;

Chicago O`Hare MOCLDY    36  29  75 SE18      29.99F WCI  26
6HR MIN TEMP:  30; 6HR MAX TEMP:  38;

Chicago Midway MOCLDY    38  30  73 SE14      30.00F WCI  30
6HR MIN TEMP:  31; 6HR MAX TEMP:  39;

Houston Bush   MOCLDY    74  67  78 SE18      30.01S
6HR MIN TEMP:  71; 6HR MAX TEMP:  79;

Houston Hobby  MOCLDY    73  68  84 SE13G21   30.02S
6HR MIN TEMP:  72; 6HR MAX TEMP:  80;

Nashville      MOCLDY    56  35  45 E5        30.15S
6HR MIN TEMP:  52; 6HR MAX TEMP:  61;

Atlanta        CLOUDY    60  58  92 SE3       30.25R
6HR MIN TEMP:  60; 6HR MAX TEMP:  66; 6HR PCP:  0.03;


$$

GAZ044-118-TXZ119-213-NCZ071-DCZ001-MDZ014-506-PAZ021-071-NJZ106-
NYZ176-178-MAZ106-OHZ011-021-055-MIZ076-KYZ091-ILZ014-INZ047-
MNZ060-ONZ431-190100-

...Gateway Observations for Savannah International...

CITY           SKY/WX    TMP DP  RH WIND       PRES   REMARKS
Savannah Arpt  CLOUDY    62  57  83 E8        30.31R
6HR MIN TEMP:  62; 6HR MAX TEMP:  72;

Atlanta        CLOUDY    60  58  92 SE3       30.25R
6HR MIN TEMP:  60; 6HR MAX TEMP:  66; 6HR PCP:  0.03;

Charlotte      MOCLDY    61  37  41 E6        30.33R
6HR MIN TEMP:  59; 6HR MAX TEMP:  65;

Dallas DFW     CLOUDY    63  60  90 S14       29.88F
6HR MIN TEMP:  54; 6HR MAX TEMP:  64; 6HR PCP:  0.02;

Houston Bush   MOCLDY    74  67  78 SE18      30.01S
6HR MIN TEMP:  71; 6HR MAX TEMP:  79;

Wash National  MOCLDY    46  33  60 E5        30.45R
6HR MIN TEMP:  46; 6HR MAX TEMP:  51;

Wash Dulles    FAIR      39  31  72 E5        30.43R WCI  36
6HR MIN TEMP:  37; 6HR MAX TEMP:  50;

Baltimore      FAIR      41  30  65 CALM      30.44R
6HR MIN TEMP:  41; 6HR MAX TEMP:  48;

Philadelphia   FAIR      43  24  47 W8        30.48R
6HR MIN TEMP:  43; 6HR MAX TEMP:  46;

Newark         FAIR      40  23  50 NE5       30.45R WCI  37
6HR MIN TEMP:  39; 6HR MAX TEMP:  46;

Laguardia      MOCLDY    43  23  45 N7        30.45R
6HR MIN TEMP:  42; 6HR MAX TEMP:  45;

J F K          MOCLDY    40  23  50 NW8       30.47R WCI  34
6HR MIN TEMP:  40; 6HR MAX TEMP:  45;

Boston         FAIR      40  22  48 NW9       30.43R WCI  34
6HR MIN TEMP:  40; 6HR MAX TEMP:  44;

Pittsburg      MOCLDY    35  26  69 E5        30.31F WCI  31
6HR MIN TEMP:  35; 6HR MAX TEMP:  39;

Akron          MOCLDY    37  25  61 SE10      30.29F WCI  30
6HR MIN TEMP:  37; 6HR MAX TEMP:  43;

Cleveland      MOCLDY    38  27  64 SE6       30.29F WCI  33
6HR MIN TEMP:  38; 6HR MAX TEMP:  44;

Cincinnati     CLOUDY    43  34  70 SE8       30.18F
6HR MIN TEMP:  41; 6HR MAX TEMP:  48;

Columbus       FAIR      39  31  71 SE7       30.25R WCI  34
Detroit        MOCLDY    33  26  75 SE3       30.24S
6HR MIN TEMP:  33; 6HR MAX TEMP:  36;

Chicago O`Hare MOCLDY    36  29  75 SE18      29.99F WCI  26
6HR MIN TEMP:  30; 6HR MAX TEMP:  38;

Minneapolis    CLOUDY    41  30  65 S7        29.63R
6HR MIN TEMP:  35; 6HR MAX TEMP:  45;

Indianapolis   MOCLDY    42  31  64 SE9       30.13F
6HR MIN TEMP:  39; 6HR MAX TEMP:  46;

Toronto Canada MOCLDY    32  21  64 S9        30.32F WCI  24

$$




USA.gov is the U.S. government's official web portal to all federal, state and local government web resources and services.